#timestamp,LO_Frequency,Hit,StdDev 
1544198415.8,286047004.4,N
1544198435.6,286046999.8,N
1544198455.4,286047000.4,N
1544198475.3,286046998.2,N
1544198495.1,286047000.6,N
1544198515.9,286047001.1,N
1544198535.7,286047000.3,N
1544198555.5,286046999.0,N
1544198575.4,286046998.2,N
1544198595.2,286046996.6,N
1544198615.0,286046996.5,N
1544198616.0,286046996.5,N
1544198635.8,286046996.6,N
1544198655.6,286046997.6,N
1544198675.5,286046996.3,N
1544198695.3,286046997.5,N
1544198715.1,286046995.4,N
1544198735.9,286046997.4,N
1544198755.7,286046997.6,N
1544198775.5,286046994.0,N
1544198795.4,286046994.0,N
1544198815.2,286046994.3,N
1544198835.1,286046992.2,N
1544198836.0,286046992.2,N
1544198855.8,286046993.8,N
1544198875.6,286046993.6,N
1544198895.5,286046997.5,N
1544198915.3,286046997.6,N
1544198935.2,286047011.9,Y
1544198955.9,286046995.4,P
1544198975.7,286046995.8,P
1544198995.6,286046995.4,P
1544199015.4,286046997.5,Y
1544199035.2,286047000.8,P
1544199055.1,286047000.0,N
1544199056.0,286047000.0,N
1544199075.8,286046997.0,N
1544199095.7,286046996.8,N
1544199115.5,286046999.5,N
1544199135.3,286046998.9,N
1544199155.2,286046999.4,N
1544199175.0,286047000.6,N
1544199175.9,286047000.6,N
1544199195.8,286046999.0,N
1544199215.6,286046999.2,N
1544199235.4,286046999.4,N
1544199255.3,286046997.3,N
1544199275.1,286046997.4,N
1544199295.8,286046996.8,N
1544199315.7,286046995.3,Y
1544199335.5,286046996.8,P
1544199355.4,286046999.0,N
1544199375.2,286046996.6,P
1544199395.0,286046997.6,N
1544199395.9,286046997.6,N
1544199415.8,286046997.8,N
1544199435.6,286046996.5,Y
1544199455.5,286046996.8,P
1544199475.3,286046997.7,P
1544199495.1,286046999.1,N
1544199515.9,286046996.9,Y
1544199535.7,286046998.4,P
1544199555.5,286047001.1,P
1544199575.4,286046998.8,N
1544199595.2,286046998.4,N
1544199615.1,286046996.5,Y
1544199616.0,286046996.5,P
1544199635.8,286047001.2,N
1544199655.6,286047001.0,N
1544199675.5,286047000.4,N
1544199695.3,286046999.9,N
1544199715.1,286047003.6,N
1544199735.9,286047003.5,N
1544199755.7,286047004.3,N
1544199775.6,286047002.1,N
1544199795.4,286046999.8,N
1544199815.2,286047000.6,N
1544199835.1,286046998.5,N
1544199836.0,286046998.5,N
1544199855.8,286046998.6,N
1544199875.6,286047001.0,N
1544199895.5,286046999.8,N
1544199915.3,286047003.7,N
1544199935.2,286047003.9,N
1544199955.9,286047003.5,N
1544199975.7,286047003.2,N
1544199995.6,286047001.4,N
1544200015.4,286047001.4,N
1544200035.2,286046999.9,N
1544200055.1,286047000.4,N
1544200056.0,286047000.4,N
1544200075.8,286046998.6,N
1544200095.7,286047000.1,N
1544200115.5,286047000.1,N
1544200135.3,286047000.5,N
1544200155.2,286046999.1,N
1544200175.0,286047011.9,Y
1544200175.9,286046999.1,P
1544200195.8,286046998.7,N
1544200215.6,286046999.2,N
1544200235.4,286046997.0,Y
1544200255.3,286046999.4,P
1544200275.1,286046997.6,P
1544200295.8,286046997.1,P
1544200315.7,286046999.6,N
1544200335.5,286046999.1,N
1544200355.4,286047000.0,N
1544200375.2,286047001.6,N
1544200395.0,286047004.0,Y
1544200395.9,286047004.0,P
1544200415.8,286047003.9,N
1544200435.6,286047002.6,N
1544200455.4,286047000.3,N
1544200475.3,286047000.9,N
1544200495.1,286047000.1,N
1544200515.9,286046999.0,N
1544200535.7,286046996.6,N
1544200555.5,286046997.6,N
1544200575.4,286046997.4,N
1544200595.2,286046997.1,N
1544200615.0,286046997.5,N
1544200616.0,286046997.5,N
1544200635.8,286046998.3,N
1544200655.6,286046999.0,N
1544200675.5,286047000.6,N
1544200695.3,286047001.2,N
1544200715.1,286047000.5,N
1544200735.9,286047002.8,N
1544200755.7,286046999.8,N
1544200775.6,286047000.6,N
1544200795.4,286047002.3,N
1544200815.2,286047004.4,N
1544200835.1,286047004.0,N
1544200836.0,286047004.0,N
1544200855.8,286046999.7,N
1544200875.6,286047002.5,N
1544200895.5,286047004.2,N
1544200915.3,286047005.2,N
1544200935.2,286047005.1,N
1544200955.9,286047005.9,N
1544200975.7,286047005.1,N
1544200995.6,286047004.7,N
1544201015.4,286047004.9,N
1544201035.2,286047009.0,Y
1544201055.1,286047005.9,P
1544201056.0,286047005.9,N
1544201075.8,286047005.1,N
1544201095.7,286047004.9,N
1544201115.5,286047004.7,N
1544201135.3,286047006.2,Y
1544201155.2,286047001.5,P
1544201175.0,286047002.0,N
1544201175.9,286047002.0,N
1544201195.8,286047002.2,N
1544201215.6,286047002.6,N
1544201235.4,286047002.2,N
1544201255.3,286047002.5,N
1544201275.1,286047002.2,N
1544201295.9,286047004.2,Y
1544201315.7,286047000.2,P
1544201335.5,286047002.1,N
1544201355.4,286047001.1,N
1544201375.2,286046998.8,N
1544201395.0,286046999.9,N
1544201395.9,286046999.9,N
1544201415.8,286047000.6,N
1544201435.6,286046998.2,N
1544201455.5,286046999.1,N
1544201475.3,286046994.9,Y
1544201495.1,286046995.8,P
1544201515.9,286046993.5,N
1544201535.7,286046997.6,N
1544201555.6,286046998.9,N
1544201575.4,286046997.2,N
1544201595.2,286046998.0,N
1544201615.1,286046998.0,N
1544201616.0,286046998.0,N
1544201635.8,286046997.0,N
1544201655.6,286046999.3,N
1544201675.5,286047000.7,N
1544201695.3,286046999.1,N
1544201715.2,286046995.6,N
1544201735.9,286046995.0,N
1544201755.7,286046997.2,N
1544201775.6,286046999.0,N
1544201795.4,286046999.2,N
1544201815.2,286047000.8,N
1544201835.1,286047000.9,N
1544201836.0,286047000.9,N
1544201855.8,286047001.6,N
1544201875.7,286047004.3,N
1544201895.5,286047001.4,N
1544201915.3,286047003.3,N
1544201935.2,286047002.9,N
1544201955.0,286047003.8,N
1544201955.9,286047003.8,N
1544201975.7,286047003.6,N
1544201995.6,286047004.2,N
